SCP
0 0 0 0 0 0 0 -0 -0 -0 -0 0 0 0 0 0 0 0 0 0 0 0 0 0 0 0 0 0 0 0 0 0 0 0 -0 -0 -0 -0 -0 -0 -0 -0 -0 -0 -0 -0 -0 -0 -0
0 0 0 0 0 0 -0 -0 -0 -0 -0 0 0 -0 -0 -0 0 0 0 0 0 0 0 0 0 0 0 0 0 0 0 0 0 0 0 0 -0 -0 -0 -0 -0 -0 -0 -0 -0 -0 -0 -0 -0
0 0 0 0 0 0 0 -0 -0 0 0 -0 -0 0 0 -0 0 0 0 0 0 0 0 0 0 0 0 -0 0 0 0 0 0 0 0 0 0 0 -0 -0 -0 -0 -0 -0 -0 -0 -0 -0 -0
0 0 0 0 0 0 0 0 0 0 0 0 0 0 0 0 0 0 0 0 0 0 0 0 0 0 0 0 0 0 0 0 0 -0 -0 -0 -0 -0 -0 -0 -0 -0 -0 -0 -0 -0 -0 -0 -0
0 0 0 0 0 0 0 0 0 0 0 0 0 -0 -0 0 0 -0 -0 -0 0 0 0 0 0 0 0 0 0 0 0 0 0 0 -0 -0 -0 -0 -0 -0 -0 -0 -0 -0 -0 -0 -0 -0 -0
0 0 0 0 0 0 0 0 0 0 0 0 0 0 -0 0 0 -0 -0 -0 -0 0 0 0 0 0 0 0 0 0 0 0 -0 -0 -0 -0 -0 -0 -0 -0 -0 -0 -0 -0 -0 -0 -0 -0 -0
0 0 0 0 0 0 0 0 0 0 0 0 -0 0 0 0 0 -0 -0 -0 -0 -0 -0 0 -0 -0 0 0 0 0 0 -0 -0 -0 -0 -0 -0 -0 -0 -0 -0 -0 -0 -0 -0 -0 0 -0 -0
0 0 0 0 0 0 0 0 0 0 0 0 0 0 -0 0 -0 -0 -0 -0 -0 -0 -0 0 -0 -0 0 0 0 0 -0 0 -0 0 0 -0 -0 -0 -0 -0 -0 -0 -0 -0 -0 -0 0 0 0
0 0 0 0 0 0 0 0 0 0 0 0 0 0 0 -0 -0 -0 -0 -0 -0 -0 -0 -0 -0 -0 -0 -0 0 0 -0 -0 -0 -0 -0 0 0 0 -0 -0 -0 -0 -0 0 0 0 0 0 0
0 0 0 0 0 0 0 0 0 0 0 0 0 0 0 -0 -0 -0 -0 -0 -0 -0 -0 -0 -0 -0 -0 -0 -0 -0 -0 0 0 0 0 0 0 0 0 0 -0 0 0 0 0 0 0 0 0
0 0 0 0 0 0 0 0 0 0 0 0 0 0 0 0 0 0 -0 -0 -0 -0 -0 -0 -0 -0 -0 -0 -0 0 0 0 0 -0 0 0 0 0 0 0 0 0 0 0 0 0 0 0 0
0 0 0 0 0 0 0 0 0 0 0 0 0 0 0 0 0 0 -0 -0 -0 -0 -0 -0 -0 -0 -0 -0 -0 -0 -0 -0 -0 0 -0 0 0 0 0 0 0 0 0 0 0 0 0 0 0
0 0 0 0 0 0 0 0 0 0 0 0 0 0 0 0 0 0 0 0 0 -0 -0 -0 -0 -0 -0 -0 -0 -0 -0 -0 -0 -0 0 0 0 0 0 0 0 0 0 0 0 0 0 0 0
0 0 0 0 0 0 0 0 0 0 0 0 0 0 0 0 0 0 0 0 0 -0 0 0 -0 -0 -0 -0 -0 0 -0 0 0 0 0 0 0 0 0 0 0 0 0 0 0 0 0 0 0
0 0 0 0 0 0 0 0 0 0 0 0 0 0 0 0 0 0 0 0 0 0 0 0 -0 0 -0 -0 0 0 0 0 0 0 0 0 0 0 0 0 0 0 0 0 0 0 0 0 0
0 0 0 0 0 0 0 0 0 0 0 0 0 0 0 0 0 0 0 0 0 0 0 0 0 0 0 0 0 0 0 0 0 0 0 0 0 0 0 0 0 0 0 0 0 0 0 0 0
0 0 0 0 0 0 0 0 0 0 0 0 0 0 0 0 0 0 0 0 0 0 0 0 0 0 0 0 0 0 0 0 0 0 0 0 0 0 0 0 0 0 0 0 0 0 0 0 0
0 0 0 0 0 0 0 0 0 0 0 0 0 0 0 0 -0 0 0 0 0 0 0 0 0 0 0 0 0 0 0 0 0 0 0 0 0 0 0 0 0 0 0 0 0 0 0 0 0
0 0 0 0 0 0 0 0 0 0 0 0 0 0 0 0 -0 0 0 0 0 0 0 0 0 0 0 0 0 0 0 0 0 0 0 0 0 0 0 0 0 0 0 0 0 0 0 0 0
0 0 0 0 0 0 0 0 0 0 0 0 0 0 0 0 0 0 0 0 0 0 0 0 0 0 0 0 0 0 0 0 0 0 0 0 0 0 0 0 0 0 0 0 0 0 0 0 0
0 0 0 0 0 0 0 0 0 0 0 0 0 0 0 0 0 0 0 0 0 0 0 0 0 0 0 0 0 0 0 0 0 0 0 0 0 0 0 0 0 0 0 0 0 0 0 0 0
0 0 0 0 0 0 0 0 0 0 -0 0 0 0 0 0 0 0 0 0 0 0 0 0 0 0 0 0 0 0 0 0 0 0 0 0 0 0 0 0 0 0 0 0 0 0 0 0 0
0 0 0 0 0 0 0 0 -0 0 0 0 -0 0 0 0 0 0 0 0 0 0 0 0 0 0 0 0 0 0 0 0 0 0 0 0 0 0 0 0 0 0 0 0 0 0 0 0 0
0 0 0 0 0 0 0 0 0 0 0 0 0 0 0 0 0 0 0 0 0 0 0 0 0 0 0 0 0 0 0 0 0 0 0 0 0 0 0 0 0 0 0 0 0 0 0 0 0
0 0 0 0 0 0 0 0 0 0 0 0 0 0 0 0 0 0 0 0 0 0 0 0 0 0 0 0 0 0 0 0 0 0 0 0 0 0 0 0 0 0 0 0 0 0 0 0 0
0 0 0 0 0 0 0 0 0 -0 0 0 0 0 0 0 0 0 0 0 0 0 0 0 0 0 0 0 0 0 0 0 0 0 0 0 0 0 0 0 0 0 0 0 0 0 0 0 0
0 0 0 0 0 0 0 0 0 0 0 0 0 0 0 0 0 0 0 0 0 0 0 0 0 0 0 0 0 0 0 0 0 0 0 0 0 0 0 0 0 0 0 0 0 0 0 0 0
0 0 0 0 0 0 0 0 0 0 0 0 0 0 0 0 0 0 0 0 0 0 0 0 0 0 0 0 0 0 0 0 0 0 0 0 0 0 0 0 0 0 0 0 0 0 0 0 0
0 0 0 0 0 0 0 0 0 0 0 0 0 0 0 0 0 0 0 0 0 0 0 0 0 0 0 0 0 0 0 0 0 0 0 0 0 0 0 0 0 0 0 0 0 0 0 0 0
0 0 0 0 0 0 0 0 0 0 0 0 0 0 0 0 0 0 0 0 0 0 0 0 0 0 0 0 0 0 0 0 0 0 0 0 0 0 0 0 0 0 0 0 0 0 0 0 0
Wind_Speed_500mb
9 12 13 5 8 8 3 4 1 7 7 7 23 9 12 6 6 4 30 31 31 22 20 21 18 22 26 32 22 18 18 20 21 22 24 28 31 30 25 24 23 29 31 30 28 25 26 25 23
8 10 8 4 8 6 5 4 10 8 10 27 22 17 6 3 8 26 39 35 30 23 20 21 18 23 31 31 20 19 23 27 29 28 30 37 34 28 27 22 23 26 28 30 24 29 29 26 24
8 8 3 7 6 8 7 8 9 12 24 10 11 7 7 10 17 47 33 37 35 26 23 22 19 21 27 28 23 21 26 26 29 29 28 29 30 34 30 25 23 18 27 27 28 29 28 29 29
5 3 9 7 6 6 7 7 12 25 3 9 17 12 9 12 42 27 40 37 34 29 26 23 19 20 22 22 20 20 21 22 26 27 29 31 29 25 31 31 23 22 22 26 25 27 28 31 33
3 2 6 5 5 4 6 8 37 10 9 11 11 9 7 19 32 37 42 39 34 30 26 22 19 20 20 21 20 21 20 23 25 27 28 28 27 25 23 24 24 20 26 27 26 26 27 29 31
4 5 7 3 6 4 5 18 25 10 14 14 12 17 12 33 30 42 42 39 32 27 28 24 19 19 18 18 20 19 19 21 22 23 23 21 19 19 20 19 19 19 24 24 24 24 24 25 27
10 7 6 7 5 7 6 27 20 17 14 10 17 11 14 34 33 41 41 39 35 30 28 28 21 19 19 16 18 19 18 19 19 18 16 16 17 15 15 14 13 16 20 20 19 19 20 21 23
12 11 7 8 7 9 12 20 14 19 12 10 17 9 12 39 42 44 42 39 36 33 30 29 25 21 18 17 16 16 17 16 15 14 13 13 12 13 12 12 10 10 13 14 15 16 17 18 20
16 8 6 8 12 8 21 13 14 14 21 19 17 8 13 44 48 50 48 47 42 39 35 31 28 23 20 19 16 15 14 15 13 11 11 10 10 10 10 10 9 8 7 9 11 12 14 15 15
8 8 16 13 9 6 17 18 30 14 14 13 20 16 15 50 51 56 56 55 50 46 41 36 31 27 23 21 18 16 14 13 11 9 7 7 8 8 8 7 6 6 4 3 5 8 9 10 10
10 10 11 11 16 10 8 11 26 24 6 29 39 32 26 54 55 56 54 52 49 45 42 39 35 31 27 23 20 18 15 13 11 8 4 2 4 6 6 4 3 3 4 3 0 3 5 6 7
11 12 12 8 10 11 9 11 15 30 15 27 27 28 32 50 58 59 58 55 50 48 43 40 37 34 30 27 25 22 19 16 13 11 7 5 3 3 2 1 1 1 2 4 5 4 3 5 4
8 8 18 8 7 9 11 21 13 37 20 16 31 30 36 44 51 52 54 52 50 49 44 41 39 37 35 32 30 27 24 21 19 16 13 10 8 7 6 4 3 3 5 6 7 8 9 9 8
17 17 10 8 8 4 12 5 7 17 30 20 26 31 38 41 45 46 52 53 53 46 45 41 40 39 39 37 34 31 29 25 25 23 20 17 15 14 13 10 8 7 8 9 9 11 13 13 13
12 9 3 5 8 7 10 5 17 14 36 25 29 33 40 42 43 40 42 47 44 42 41 43 41 38 40 40 38 36 35 32 30 27 27 25 23 21 20 19 15 14 14 13 14 15 16 17 17
9 9 7 5 9 6 13 11 12 24 27 37 32 37 41 41 43 37 35 37 37 39 41 38 40 38 38 40 42 41 39 39 36 33 32 32 30 28 30 24 18 20 21 21 20 20 20 20 21
8 9 10 5 15 8 7 12 5 25 26 32 32 38 43 44 44 40 38 38 38 39 39 41 41 41 37 35 35 39 42 45 39 36 37 34 30 30 29 27 26 30 28 28 28 27 26 25 25
12 9 7 12 5 4 5 15 2 11 24 30 32 38 43 45 42 39 40 38 38 41 42 44 44 43 42 40 38 37 38 44 44 44 39 33 35 33 33 31 30 33 35 35 35 33 32 31 30
12 9 9 6 5 9 12 15 15 15 15 25 37 40 45 49 41 45 45 43 42 43 48 50 52 50 51 53 51 49 48 43 44 45 41 41 38 39 39 38 37 36 37 35 33 37 38 37 36
9 12 9 0 2 8 6 20 14 14 22 35 42 43 50 51 52 51 51 51 51 50 48 52 54 53 53 54 55 52 46 45 44 43 41 44 46 44 45 42 42 41 42 42 39 37 36 39 40
7 14 11 6 3 3 4 14 13 11 33 44 40 40 42 54 58 56 55 55 55 57 53 54 54 56 53 52 54 55 56 55 53 51 48 45 47 49 51 50 47 45 45 48 45 44 43 36 38
11 13 11 11 8 7 5 10 10 14 19 15 54 56 62 61 61 58 58 57 56 52 51 49 55 59 56 56 57 60 62 61 52 46 40 40 42 39 47 50 46 47 48 51 51 51 48 46 47
11 13 13 6 8 4 2 4 13 4 12 17 45 63 70 70 70 72 63 55 52 53 48 46 47 50 55 59 61 62 65 65 60 58 52 47 41 39 35 37 41 44 48 50 52 53 55 54 58
20 15 15 10 6 5 11 10 9 11 20 17 42 59 69 76 72 65 61 59 59 55 53 51 46 48 50 54 56 60 61 62 62 61 58 55 52 48 42 43 41 41 41 45 45 45 50 55 62
8 13 6 3 3 10 2 3 14 18 18 12 8 15 13 18 28 33 38 46 49 52 53 52 51 45 46 49 49 49 51 55 57 56 58 57 54 52 50 47 46 47 43 43 42 43 45 46 52
14 17 11 13 8 6 1 13 12 25 23 34 36 18 11 8 13 17 21 23 26 31 34 33 35 36 36 37 39 40 44 48 50 53 54 53 52 50 46 49 51 48 47 46 44 48 46 46 47
12 11 15 14 3 4 9 12 22 14 18 28 23 25 26 13 14 20 22 20 20 20 20 19 17 18 22 27 30 34 38 43 47 51 53 49 45 43 39 41 44 43 44 36 40 45 43 46 42
20 23 8 4 8 8 6 9 11 4 5 6 12 27 30 29 28 27 27 24 20 16 14 14 15 16 21 24 25 28 32 34 36 37 39 43 43 46 44 41 35 36 40 40 38 41 46 46 42
9 14 6 12 9 10 2 11 10 9 9 8 16 20 33 35 32 31 26 21 18 16 14 12 12 13 14 15 16 18 21 22 23 24 24 26 29 27 22 25 33 38 40 34 35 38 41 40 37
5 16 13 13 10 1 6 10 2 9 14 18 20 25 30 33 34 29 26 23 19 16 13 11 9 10 11 13 14 15 16 17 19 19 16 14 9 9 15 21 28 33 35 35 37 33 24 28 22
Wind_Direction_500mb
304 324 328 320 63 66 128 207 259 134 154 177 143 151 174 108 160 149 147 149 149 144 137 124 117 113 108 103 100 87 91 113 126 130 123 102 91 89 93 95 99 100 93 88 86 79 70 67 67
294 316 313 73 88 91 252 258 185 183 144 129 112 114 98 105 114 139 144 148 147 141 133 122 114 112 114 106 117 91 93 102 109 114 132 123 111 103 93 100 97 101 94 89 85 78 71 67 65
292 316 336 88 107 164 184 200 183 138 129 148 117 101 103 125 132 142 147 151 148 144 135 128 114 111 122 120 113 89 82 87 93 101 102 110 119 121 112 98 94 108 102 92 83 81 72 68 67
289 328 51 79 183 223 175 172 161 146 194 158 135 89 110 129 145 150 152 155 149 146 143 137 126 116 119 123 111 94 86 86 95 99 99 99 102 113 123 118 109 109 104 96 86 77 71 65 64
239 78 67 79 287 265 254 177 162 146 141 149 152 156 116 156 154 155 156 157 152 152 150 145 140 124 121 121 112 103 93 88 97 96 97 95 93 100 115 112 113 98 98 95 84 74 70 66 64
122 88 69 183 250 260 264 179 158 156 149 159 136 130 139 156 160 158 159 160 156 160 158 154 153 135 126 121 115 110 106 92 96 96 95 93 96 100 102 111 110 91 89 87 78 73 70 68 66
127 91 181 167 255 302 216 168 164 157 156 190 157 114 156 165 162 162 163 165 162 170 173 164 163 153 140 132 125 121 116 104 100 96 92 94 91 84 81 101 94 88 88 86 80 75 72 71 67
140 97 126 202 196 255 168 168 183 162 179 171 165 165 175 174 166 166 167 172 173 176 183 177 172 170 158 150 141 133 128 122 111 103 96 93 94 92 86 99 93 97 91 83 73 65 65 66 65
135 77 185 216 159 230 169 174 174 172 155 165 185 159 164 179 171 172 175 179 182 184 187 190 183 181 178 169 162 154 148 143 131 119 111 103 98 98 93 105 119 120 101 89 71 63 58 61 63
114 137 210 196 197 223 196 184 166 162 159 194 191 195 180 181 183 183 186 186 188 189 190 193 193 191 195 189 184 178 170 168 159 141 128 113 106 106 103 100 129 144 134 92 70 56 56 62 62
136 189 194 215 213 215 225 213 174 152 208 208 201 198 185 185 191 194 196 198 195 193 196 198 200 197 204 206 202 202 196 195 188 180 174 152 123 125 113 125 122 155 189 201 316 24 29 33 39
132 239 185 177 187 160 188 194 205 191 201 221 213 213 198 192 199 201 202 202 200 199 202 204 207 208 209 215 216 217 216 219 217 215 211 222 251 227 177 126 164 241 267 256 257 283 324 337 346
165 190 207 213 219 224 193 222 222 216 201 175 199 206 209 203 204 208 209 207 205 206 205 209 214 216 217 220 226 229 226 228 231 235 237 242 254 254 261 269 285 281 278 278 272 271 288 307 307
212 173 186 202 219 193 161 200 205 234 207 187 191 207 211 213 212 207 209 211 211 209 213 215 218 222 226 227 231 237 240 238 241 243 247 250 252 257 258 263 272 283 276 269 272 278 282 286 292
143 139 74 178 209 148 160 120 229 226 205 210 203 209 210 214 214 218 215 214 212 212 217 222 224 228 230 234 237 240 243 245 245 249 253 255 257 261 259 256 265 275 280 283 282 286 289 287 287
105 65 148 232 171 186 158 258 240 214 205 217 212 208 209 214 219 221 219 220 217 216 220 221 225 231 234 238 242 243 245 247 249 249 251 255 259 263 271 256 265 276 280 281 282 280 282 287 291
24 164 196 251 199 156 170 228 223 199 206 217 217 213 211 214 220 223 223 222 221 222 222 225 229 235 237 241 245 247 252 248 248 247 246 248 256 260 264 266 277 280 282 281 280 283 286 286 289
170 158 214 197 207 149 169 263 292 212 208 220 226 223 222 221 223 222 223 224 226 227 229 230 234 239 242 243 243 247 252 250 247 253 253 254 252 250 255 263 270 275 275 279 285 285 286 287 294
146 133 163 201 198 159 201 249 235 216 221 233 235 233 229 228 227 228 228 229 231 230 232 234 234 237 239 241 241 241 248 252 256 248 248 250 253 256 257 260 265 270 273 277 277 282 283 285 287
136 154 196 294 60 157 169 254 261 216 243 226 230 237 239 239 237 235 234 232 235 237 238 238 237 239 240 244 249 252 259 263 264 261 258 255 255 257 260 262 263 268 274 279 281 285 288 288 284
160 167 183 161 83 60 50 283 261 242 239 249 245 240 246 246 246 242 240 237 237 239 242 245 246 245 243 245 248 250 254 256 256 254 257 260 259 259 264 264 266 269 270 275 279 280 283 288 286
163 194 143 130 108 221 102 274 257 237 234 219 242 241 242 244 249 249 243 240 239 244 249 252 253 247 246 244 246 246 250 254 260 265 269 268 267 268 260 259 264 269 276 278 279 279 276 273 274
210 130 136 102 104 59 359 274 264 17 254 238 242 237 241 245 251 251 247 243 241 242 243 242 248 246 240 241 245 249 251 257 261 262 264 265 266 267 270 269 268 266 266 268 272 277 276 277 273
155 86 57 55 85 282 215 170 259 193 209 230 228 233 238 243 249 256 252 244 239 239 237 239 243 239 235 236 240 244 249 253 257 261 263 266 268 269 268 269 269 267 271 273 276 274 272 277 275
95 104 41 10 350 220 91 180 254 253 242 212 224 210 242 259 251 251 244 237 236 234 232 233 233 237 239 236 237 240 247 251 256 260 262 264 265 266 269 268 266 266 269 270 271 276 273 275 278
175 154 151 182 202 227 233 232 242 233 262 249 236 218 220 267 232 212 204 207 209 209 212 219 225 230 235 237 238 241 244 249 255 260 263 265 267 266 262 261 258 257 259 263 268 273 270 273 276
187 188 148 106 48 57 215 296 302 258 259 256 230 215 216 198 184 173 166 167 173 180 186 195 207 215 225 232 237 243 248 255 261 262 263 262 261 263 261 254 250 254 257 259 271 277 271 270 272
179 150 165 48 138 251 279 273 239 236 157 152 199 204 179 162 155 154 152 157 165 173 184 198 210 222 231 238 242 247 250 253 257 258 259 257 256 258 253 250 245 256 252 256 269 266 267 264 268
123 181 103 122 159 171 200 261 220 260 290 277 240 200 175 165 159 156 153 156 162 166 173 179 189 200 215 224 232 239 247 253 256 258 255 250 246 244 242 238 247 256 257 254 271 270 275 264 260
183 172 154 182 209 169 146 272 125 283 274 257 243 191 179 167 158 156 154 152 151 152 154 163 178 201 221 235 242 250 261 269 275 272 270 268 269 251 248 250 257 253 260 260 268 266 268 262 257
Wind_Speed_850mb
9 12 13 5 8 8 3 4 1 7 7 7 23 9 12 6 6 4 30 31 31 22 20 21 18 22 26 32 22 18 18 20 21 22 24 28 31 30 25 24 23 29 31 30 28 25 26 25 23
8 10 8 4 8 6 5 4 10 8 10 27 22 17 6 3 8 26 39 35 30 23 20 21 18 23 31 31 20 19 23 27 29 28 30 37 34 28 27 22 23 26 28 30 24 29 29 26 24
8 8 3 7 6 8 7 8 9 12 24 10 11 7 7 10 17 47 33 37 35 26 23 22 19 21 27 28 23 21 26 26 29 29 28 29 30 34 30 25 23 18 27 27 28 29 28 29 29
5 3 9 7 6 6 7 7 12 25 3 9 17 12 9 12 42 27 40 37 34 29 26 23 19 20 22 22 20 20 21 22 26 27 29 31 29 25 31 31 23 22 22 26 25 27 28 31 33
3 2 6 5 5 4 6 8 37 10 9 11 11 9 7 19 32 37 42 39 34 30 26 22 19 20 20 21 20 21 20 23 25 27 28 28 27 25 23 24 24 20 26 27 26 26 27 29 31
4 5 7 3 6 4 5 18 25 10 14 14 12 17 12 33 30 42 42 39 32 27 28 24 19 19 18 18 20 19 19 21 22 23 23 21 19 19 20 19 19 19 24 24 24 24 24 25 27
10 7 6 7 5 7 6 27 20 17 14 10 17 11 14 34 33 41 41 39 35 30 28 28 21 19 19 16 18 19 18 19 19 18 16 16 17 15 15 14 13 16 20 20 19 19 20 21 23
12 11 7 8 7 9 12 20 14 19 12 10 17 9 12 39 42 44 42 39 36 33 30 29 25 21 18 17 16 16 17 16 15 14 13 13 12 13 12 12 10 10 13 14 15 16 17 18 20
16 8 6 8 12 8 21 13 14 14 21 19 17 8 13 44 48 50 48 47 42 39 35 31 28 23 20 19 16 15 14 15 13 11 11 10 10 10 10 10 9 8 7 9 11 12 14 15 15
8 8 16 13 9 6 17 18 30 14 14 13 20 16 15 50 51 56 56 55 50 46 41 36 31 27 23 21 18 16 14 13 11 9 7 7 8 8 8 7 6 6 4 3 5 8 9 10 10
10 10 11 11 16 10 8 11 26 24 6 29 39 32 26 54 55 56 54 52 49 45 42 39 35 31 27 23 20 18 15 13 11 8 4 2 4 6 6 4 3 3 4 3 0 3 5 6 7
11 12 12 8 10 11 9 11 15 30 15 27 27 28 32 50 58 59 58 55 50 48 43 40 37 34 30 27 25 22 19 16 13 11 7 5 3 3 2 1 1 1 2 4 5 4 3 5 4
8 8 18 8 7 9 11 21 13 37 20 16 31 30 36 44 51 52 54 52 50 49 44 41 39 37 35 32 30 27 24 21 19 16 13 10 8 7 6 4 3 3 5 6 7 8 9 9 8
17 17 10 8 8 4 12 5 7 17 30 20 26 31 38 41 45 46 52 53 53 46 45 41 40 39 39 37 34 31 29 25 25 23 20 17 15 14 13 10 8 7 8 9 9 11 13 13 13
12 9 3 5 8 7 10 5 17 14 36 25 29 33 40 42 43 40 42 47 44 42 41 43 41 38 40 40 38 36 35 32 30 27 27 25 23 21 20 19 15 14 14 13 14 15 16 17 17
9 9 7 5 9 6 13 11 12 24 27 37 32 37 41 41 43 37 35 37 37 39 41 38 40 38 38 40 42 41 39 39 36 33 32 32 30 28 30 24 18 20 21 21 20 20 20 20 21
8 9 10 5 15 8 7 12 5 25 26 32 32 38 43 44 44 40 38 38 38 39 39 41 41 41 37 35 35 39 42 45 39 36 37 34 30 30 29 27 26 30 28 28 28 27 26 25 25
12 9 7 12 5 4 5 15 2 11 24 30 32 38 43 45 42 39 40 38 38 41 42 44 44 43 42 40 38 37 38 44 44 44 39 33 35 33 33 31 30 33 35 35 35 33 32 31 30
12 9 9 6 5 9 12 15 15 15 15 25 37 40 45 49 41 45 45 43 42 43 48 50 52 50 51 53 51 49 48 43 44 45 41 41 38 39 39 38 37 36 37 35 33 37 38 37 36
9 12 9 0 2 8 6 20 14 14 22 35 42 43 50 51 52 51 51 51 51 50 48 52 54 53 53 54 55 52 46 45 44 43 41 44 46 44 45 42 42 41 42 42 39 37 36 39 40
7 14 11 6 3 3 4 14 13 11 33 44 40 40 42 54 58 56 55 55 55 57 53 54 54 56 53 52 54 55 56 55 53 51 48 45 47 49 51 50 47 45 45 48 45 44 43 36 38
11 13 11 11 8 7 5 10 10 14 19 15 54 56 62 61 61 58 58 57 56 52 51 49 55 59 56 56 57 60 62 61 52 46 40 40 42 39 47 50 46 47 48 51 51 51 48 46 47
11 13 13 6 8 4 2 4 13 4 12 17 45 63 70 70 70 72 63 55 52 53 48 46 47 50 55 59 61 62 65 65 60 58 52 47 41 39 35 37 41 44 48 50 52 53 55 54 58
20 15 15 10 6 5 11 10 9 11 20 17 42 59 69 76 72 65 61 59 59 55 53 51 46 48 50 54 56 60 61 62 62 61 58 55 52 48 42 43 41 41 41 45 45 45 50 55 62
8 13 6 3 3 10 2 3 14 18 18 12 8 15 13 18 28 33 38 46 49 52 53 52 51 45 46 49 49 49 51 55 57 56 58 57 54 52 50 47 46 47 43 43 42 43 45 46 52
14 17 11 13 8 6 1 13 12 25 23 34 36 18 11 8 13 17 21 23 26 31 34 33 35 36 36 37 39 40 44 48 50 53 54 53 52 50 46 49 51 48 47 46 44 48 46 46 47
12 11 15 14 3 4 9 12 22 14 18 28 23 25 26 13 14 20 22 20 20 20 20 19 17 18 22 27 30 34 38 43 47 51 53 49 45 43 39 41 44 43 44 36 40 45 43 46 42
20 23 8 4 8 8 6 9 11 4 5 6 12 27 30 29 28 27 27 24 20 16 14 14 15 16 21 24 25 28 32 34 36 37 39 43 43 46 44 41 35 36 40 40 38 41 46 46 42
9 14 6 12 9 10 2 11 10 9 9 8 16 20 33 35 32 31 26 21 18 16 14 12 12 13 14 15 16 18 21 22 23 24 24 26 29 27 22 25 33 38 40 34 35 38 41 40 37
5 16 13 13 10 1 6 10 2 9 14 18 20 25 30 33 34 29 26 23 19 16 13 11 9 10 11 13 14 15 16 17 19 19 16 14 9 9 15 21 28 33 35 35 37 33 24 28 22
Wind_Direction_850mb
304 324 328 320 63 66 128 207 259 134 154 177 143 151 174 108 160 149 147 149 149 144 137 124 117 113 108 103 100 87 91 113 126 130 123 102 91 89 93 95 99 100 93 88 86 79 70 67 67
294 316 313 73 88 91 252 258 185 183 144 129 112 114 98 105 114 139 144 148 147 141 133 122 114 112 114 106 117 91 93 102 109 114 132 123 111 103 93 100 97 101 94 89 85 78 71 67 65
292 316 336 88 107 164 184 200 183 138 129 148 117 101 103 125 132 142 147 151 148 144 135 128 114 111 122 120 113 89 82 87 93 101 102 110 119 121 112 98 94 108 102 92 83 81 72 68 67
289 328 51 79 183 223 175 172 161 146 194 158 135 89 110 129 145 150 152 155 149 146 143 137 126 116 119 123 111 94 86 86 95 99 99 99 102 113 123 118 109 109 104 96 86 77 71 65 64
239 78 67 79 287 265 254 177 162 146 141 149 152 156 116 156 154 155 156 157 152 152 150 145 140 124 121 121 112 103 93 88 97 96 97 95 93 100 115 112 113 98 98 95 84 74 70 66 64
122 88 69 183 250 260 264 179 158 156 149 159 136 130 139 156 160 158 159 160 156 160 158 154 153 135 126 121 115 110 106 92 96 96 95 93 96 100 102 111 110 91 89 87 78 73 70 68 66
127 91 181 167 255 302 216 168 164 157 156 190 157 114 156 165 162 162 163 165 162 170 173 164 163 153 140 132 125 121 116 104 100 96 92 94 91 84 81 101 94 88 88 86 80 75 72 71 67
140 97 126 202 196 255 168 168 183 162 179 171 165 165 175 174 166 166 167 172 173 176 183 177 172 170 158 150 141 133 128 122 111 103 96 93 94 92 86 99 93 97 91 83 73 65 65 66 65
135 77 185 216 159 230 169 174 174 172 155 165 185 159 164 179 171 172 175 179 182 184 187 190 183 181 178 169 162 154 148 143 131 119 111 103 98 98 93 105 119 120 101 89 71 63 58 61 63
114 137 210 196 197 223 196 184 166 162 159 194 191 195 180 181 183 183 186 186 188 189 190 193 193 191 195 189 184 178 170 168 159 141 128 113 106 106 103 100 129 144 134 92 70 56 56 62 62
136 189 194 215 213 215 225 213 174 152 208 208 201 198 185 185 191 194 196 198 195 193 196 198 200 197 204 206 202 202 196 195 188 180 174 152 123 125 113 125 122 155 189 201 316 24 29 33 39
132 239 185 177 187 160 188 194 205 191 201 221 213 213 198 192 199 201 202 202 200 199 202 204 207 208 209 215 216 217 216 219 217 215 211 222 251 227 177 126 164 241 267 256 257 283 324 337 346
165 190 207 213 219 224 193 222 222 216 201 175 199 206 209 203 204 208 209 207 205 206 205 209 214 216 217 220 226 229 226 228 231 235 237 242 254 254 261 269 285 281 278 278 272 271 288 307 307
212 173 186 202 219 193 161 200 205 234 207 187 191 207 211 213 212 207 209 211 211 209 213 215 218 222 226 227 231 237 240 238 241 243 247 250 252 257 258 263 272 283 276 269 272 278 282 286 292
143 139 74 178 209 148 160 120 229 226 205 210 203 209 210 214 214 218 215 214 212 212 217 222 224 228 230 234 237 240 243 245 245 249 253 255 257 261 259 256 265 275 280 283 282 286 289 287 287
105 65 148 232 171 186 158 258 240 214 205 217 212 208 209 214 219 221 219 220 217 216 220 221 225 231 234 238 242 243 245 247 249 249 251 255 259 263 271 256 265 276 280 281 282 280 282 287 291
24 164 196 251 199 156 170 228 223 199 206 217 217 213 211 214 220 223 223 222 221 222 222 225 229 235 237 241 245 247 252 248 248 247 246 248 256 260 264 266 277 280 282 281 280 283 286 286 289
170 158 214 197 207 149 169 263 292 212 208 220 226 223 222 221 223 222 223 224 226 227 229 230 234 239 242 243 243 247 252 250 247 253 253 254 252 250 255 263 270 275 275 279 285 285 286 287 294
146 133 163 201 198 159 201 249 235 216 221 233 235 233 229 228 227 228 228 229 231 230 232 234 234 237 239 241 241 241 248 252 256 248 248 250 253 256 257 260 265 270 273 277 277 282 283 285 287
136 154 196 294 60 157 169 254 261 216 243 226 230 237 239 239 237 235 234 232 235 237 238 238 237 239 240 244 249 252 259 263 264 261 258 255 255 257 260 262 263 268 274 279 281 285 288 288 284
160 167 183 161 83 60 50 283 261 242 239 249 245 240 246 246 246 242 240 237 237 239 242 245 246 245 243 245 248 250 254 256 256 254 257 260 259 259 264 264 266 269 270 275 279 280 283 288 286
163 194 143 130 108 221 102 274 257 237 234 219 242 241 242 244 249 249 243 240 239 244 249 252 253 247 246 244 246 246 250 254 260 265 269 268 267 268 260 259 264 269 276 278 279 279 276 273 274
210 130 136 102 104 59 359 274 264 17 254 238 242 237 241 245 251 251 247 243 241 242 243 242 248 246 240 241 245 249 251 257 261 262 264 265 266 267 270 269 268 266 266 268 272 277 276 277 273
155 86 57 55 85 282 215 170 259 193 209 230 228 233 238 243 249 256 252 244 239 239 237 239 243 239 235 236 240 244 249 253 257 261 263 266 268 269 268 269 269 267 271 273 276 274 272 277 275
95 104 41 10 350 220 91 180 254 253 242 212 224 210 242 259 251 251 244 237 236 234 232 233 233 237 239 236 237 240 247 251 256 260 262 264 265 266 269 268 266 266 269 270 271 276 273 275 278
175 154 151 182 202 227 233 232 242 233 262 249 236 218 220 267 232 212 204 207 209 209 212 219 225 230 235 237 238 241 244 249 255 260 263 265 267 266 262 261 258 257 259 263 268 273 270 273 276
187 188 148 106 48 57 215 296 302 258 259 256 230 215 216 198 184 173 166 167 173 180 186 195 207 215 225 232 237 243 248 255 261 262 263 262 261 263 261 254 250 254 257 259 271 277 271 270 272
179 150 165 48 138 251 279 273 239 236 157 152 199 204 179 162 155 154 152 157 165 173 184 198 210 222 231 238 242 247 250 253 257 258 259 257 256 258 253 250 245 256 252 256 269 266 267 264 268
123 181 103 122 159 171 200 261 220 260 290 277 240 200 175 165 159 156 153 156 162 166 173 179 189 200 215 224 232 239 247 253 256 258 255 250 246 244 242 238 247 256 257 254 271 270 275 264 260
183 172 154 182 209 169 146 272 125 283 274 257 243 191 179 167 158 156 154 152 151 152 154 163 178 201 221 235 242 250 261 269 275 272 270 268 269 251 248 250 257 253 260 260 268 266 268 262 257